701  
ASUS44 KHUN 290310  
RWRHUN  
 
WEATHER ROUNDUP FOR THE TENNESSEE VALLEY  
NATIONAL WEATHER SERVICE HUNTSVILLE AL  
1000 PM CDT FRI APR 28 2017  
 
ALZ001>004-290400-  
NORTHWEST ALABAMA  
 
CITY SKY/WX TMP DP RH WIND PRES REMARKS
 
COURTLAND HCN N/A 79 N/A N/A S6 N/A  
RUSSELLVILLE N/A 77 N/A N/A MISG N/A  
SHOALS AIRPORT CLEAR 78 65 63 S9 29.97R  
SHOALS TVA RES N/A 79 N/A N/A MISG N/A  

 
 
ALZ005>007-016-290400-  
NORTH CENTRAL ALABAMA  
 
CITY SKY/WX TMP DP RH WIND PRES REMARKS
 
CULLMAN AG STN N/A 75 N/A N/A S3 N/A  
DECATUR AP CLEAR 74 68 81 S9 29.98R  
HUNTSVILLE AP PTCLDY 77 68 73 S8 29.99R  
MERIDIANVILLE CLEAR 77 64 65 CALM 30.00R  
REDSTONE ARSN PTCLDY 76 68 75 S6 29.98R  
VINEMONT AP FAIR 76 65 69 S12 30.03R  

 
 
ALZ008>010-290400-  
NORTHEAST ALABAMA  
 
CITY SKY/WX TMP DP RH WIND PRES REMARKS
 
ALBERTVILLE MOCLDY 73 72 94 S7 30.02R  
FORT PAYNE CLOUDY 77 63 61 CALM 30.04R  
SCOTTSBORO AP CLOUDY 77 66 69 S5 30.03R  
SCOTTSBORO HCN N/A 77 N/A N/A MISG N/A  
VALLEY HEAD N/A 75 N/A N/A MISG N/A  

 
 
TNZ076-096-097-290400-  
SOUTHEASTERN MIDDLE TENNESSEE  
 
CITY SKY/WX TMP DP RH WIND PRES REMARKS
 
TULLAHOMA CLEAR 75 64 69 S9 30.01R  
WINCHESTER CLEAR 75 66 73 S7 30.02R  

 
   
..SURROUNDING SITES
 
 
 
CITY SKY/WX TMP DP RH WIND PRES REMARKS
 
ATLANTA MOCLDY 76 67 73 SE5 30.09R  
ANNISTON CLOUDY 80 68 66 S10 30.04R  
BIRMINGHAM PTCLDY 79 67 66 S8 30.04R  
CHATTANOOGA MOCLDY 78 65 63 CALM 30.04R  
CORINTH FAIR 79 66 65 S12 29.91R  
DALTON CLEAR 73 66 78 SE6 30.06R  
GADSDEN PTCLDY N/A N/A N/A S8 30.02R  
GOLDEN TRNGL PTCLDY 79 66 65 S13 29.92R  
HALEYVILLE FAIR 75 67 76 S12 30.00R  
JACKSON TN PTCLDY 79 69 71 S9 29.87R  
MEMPHIS CLEAR 79 70 74 S12 29.84R  
NASHVILLE CLEAR 77 67 71 S12 29.93R  
OXFORD MS FAIR 75 66 73 S8 29.91R  
ROME CLEAR 77 66 68 S7 30.04R  
SAVANNAH MOCLDY 77 68 73 S9G15 29.91R  
TUPELO CLEAR 79 67 66 SE12 29.92R  
TUSCALOOSA MOCLDY 79 70 74 S8 29.99R  

 
   
..GULF COAST WEATHER
 
 
 
CITY SKY/WX TMP DP RH WIND PRES REMARKS
 
GULFPORT CLOUDY 78 76 93 SE15 29.98R  
PASCAGOULA CLOUDY 77 73 87 SE14 29.99R  
MOBILE CLOUDY 77 73 87 SE18 30.01R  
GULF SHORES CLOUDY 75 75 100 SE9G22 30.02R  
PENSACOLA CLOUDY 77 72 84 SE14 30.03R  
DESTIN CLOUDY 78 77 96 SE12 30.05R  
PANAMA CITY PTCLDY 74 72 91 SE5 30.06R  
APPALACHICOLA CLOUDY 75 75 100 SE5 30.05R  

 
 
 
 
CLICK HERE TO GO TO PREVIOUS BULLETINS.

The Nexlab AL Page
The Nexlab TN Page Main Text Page